Location: STAR School
(35.3054°N, 111.2976°W)
Time: 08:21:30
(UTC-07:00)

N. Korean satellite - Pass Details

Date: 29 October 2019
Orbit: 456 x 506 km, 97.2° (Epoch: 14 November)

Event Time Altitude Azimuth Distance (km) Brightness Sun altitude
Rises 18:40:08 0° 214° (SW) 2,464 10.8 -14.1°
Reaches altitude 10° 18:43:47 10° 256° (WSW) 1,606 10.6 -14.9°
Maximum altitude 18:44:30 11° 268° (W) 1,579 10.5 -15.0°
Drops below altitude 10° 18:45:13 10° 280° (W) 1,613 10.4 -15.2°
Sets 18:48:56 0° 322° (NW) 2,510 10.7 -15.9°
